Home > Weather > Akron > Past weeks

Flag for USA Past Weather in Akron, Ohio, USA — Yesterday and Last 2 Weeks

Now
77 °F

Sunny.


Feels Like: 79 °F
Forecast: 60 / 84 °F
Wind: N/A

Location: Akron Fulton International Airport

Current Time: May 31, 2016 at 10:22:22 AM

Latest Report: May 31, 2016 at 9:54 AM


Visibility: 9 mi

Pressure: 29.99 "Hg

Humidity: 54%

Dew Point: 59 °F

Location of AkronLocation

Past Weather in Akron — Graph

°F

Akron Temperature Yesterday

Maximum temperature yesterday: 83 °F (at 1:54 PM)
Minimum temperature yesterday: 62 °F (at 5:54 AM)
Average temperature yesterday: 74 °F

High & Low Weather Summary for the Past Weeks

 TemperatureHumidityPressure
High89 °F (May 28, 3:54 PM)93% (May 21, 6:02 AM)30.24 "Hg (May 21, 6:02 AM)
Low41 °F (May 19, 4:54 AM)29% (May 24, 5:54 PM)29.93 "Hg (May 22, 3:54 AM)
Average66 °F62%30.06 "Hg
* Reported May 16 8:54 AM — May 31 8:54 AM, Akron, Weather by CustomWeather, © 2016

Note: Actual official high and low records may vary slightly from our data, if they occured in-between our weather recording intervals... More about our weather records

Advertising

Akron Weather History for the Previous 24 Hours

Scroll right to see more
 ConditionsComfort  
Time TempWeatherWind HumidityBarometerVisibility
8:54 AM
Tue, May 31
74 °FSunny.N/A60%29.99 "Hg10 mi
7:54 AM71 °FSunny.N/A63%29.98 "Hg10 mi
6:54 AM63 °FClear.N/A78%29.98 "Hg10 mi
5:54 AM62 °FClear.N/A75%29.96 "Hg10 mi
4:54 AM65 °FClear.N/A68%29.96 "Hg10 mi
3:54 AM62 °FPassing clouds.N/A80%29.96 "Hg10 mi
2:54 AM64 °FPassing clouds.N/A78%29.96 "Hg10 mi
1:54 AM63 °FPassing clouds.N/A81%29.96 "Hg10 mi
12:54 AM65 °FPassing clouds.N/A76%29.97 "Hg10 mi
11:54 PM
Mon, May 30
64 °FClear.N/A78%29.98 "Hg10 mi
10:54 PM66 °FClear.N/A73%29.98 "Hg10 mi
9:54 PM70 °FClear.N/A61%29.97 "Hg10 mi
8:54 PM76 °FSunny.N/A48%29.95 "Hg10 mi
7:54 PM80 °FSunny.N/A42%29.95 "Hg10 mi
6:54 PM83 °FSunny.N/A38%29.95 "Hg10 mi
5:54 PM83 °FSunny.N/A38%29.95 "Hg10 mi
4:54 PM83 °FSunny.N/A38%29.96 "Hg10 mi
3:54 PM83 °FPassing clouds.N/A41%29.98 "Hg10 mi
2:54 PM82 °FScattered clouds.N/A41%29.99 "Hg10 mi
1:54 PM83 °FPartly sunny.N/A44%30.00 "Hg10 mi
12:54 PM81 °FPassing clouds.N/A47%30.00 "Hg10 mi
11:54 AM79 °FPartly sunny.N/A50%30.00 "Hg10 mi
10:54 AM77 °FSunny.N/A58%30.00 "Hg10 mi
Weather by CustomWeather, © 2016

See weather overviewHow to use our weather pages